STARLINK-38136, 100166

Orbit data source: Space-Track

STARLINK-38136, 100166 is a payload satellite owned by SpaceX/Seattle (US) in SSO that was launched on Sat, 25 Jul 2026 UTC launched from the Air Force Western Test Range (AFWTR). Payload-class satellites include a variety of spacecraft equipped with specific instruments for various scientific and technological missions. These include communications satellites like Starlink; space stations such as the ISS; scientific satellites like the Hubble; Earth observation satellites from companies like Planet Labs, Umbra, and HawkEye 360; GPS; miniature CubeSats for education and research; and military/defense satellites.

Loading next visibility...
Identifier
100166, 2026-171U
Orbit
SSO
Country
Flag of USUS
Related business
Manufacturer
SpaceX/Seattle
Mission
Operational spacecraft
Bus & Motor
STARLINK V2MO, Unknown motor
Mass
575 kg wet, ~530 kg dry
Launch date (UTC)
2026-07-25 (2 weeks ago)
Launch vehicle
Unknown
Launch site
Air Force Western Test Range (AFWTR)
Object type
Payload
Rocket body
Debris
Shape & HBR
BOX + PAN, 17.7 m
Radar Cross Section
RCS unknown

Expand to show TLE details & history
Last TLE update: 21 hours ago

TLE from 21 hours ago
0 STARLINK-38136
1 A0166U 26171U   26219.59140807  .00162285  00000-0  83182-3 0  9993
2 A0166  97.2865 251.0873 0002573  88.5464 271.6099 15.80826933  2067
Epoch: 2026-08-07T14:11Z
TLE epoch observation values (Epoch: 2026-08-07T14:11:37.657Z)
Latitude
-0.00001°
Longitude
82.06549°
Altitude
331.229 km
Speed
7.71 km/s
True Right ascension
16h 44m 20s
True Declination
0° 00' 00"
Sunlit
Object was in full shadow at epoch
Visualization orbit readout
Latitude
Unknown
Longitude
Unknown
Altitude
Unknown
Speed
Unknown
Apparent Right ascension
Unknown
Apparent Declination
Unknown
Sunlit
N/A
Visualization observer readout
Local Sidereal Time
01:01:54
Azimuth
Unknown
Elevation
Unknown
Doppler factor
Unknown
Orbital elements
Apogee altitude
326.706 km
Perigee altitude
323.256 km
Semi-major axis
6,703.118 km
Eccentricity
0.00026
Inclination
97.2865°
RAAN
251.0873°
Arg. of periapsis
88.5464°
True anomaly
271.58043°
Mean anomaly
271.6099°
Eccentric anomaly
271.59516°
Mean motion
3.95483 °/min
Orbital period
91.03 mins
BSTAR
0.00083182
Loading maneuver chart data...
Computing Atmospheric mass density...
Loading historical data...
Loading historical data...
Loading historical data...
Loading historical data...
Loading historical data...
Loading historical data...
Loading historical data...

Documentation

Showing up to 5 results
|